TimePST,TemperatureF,Dew PointF,Humidity,Sea Level PressureIn,VisibilityMPH,Wind Direction,Wind SpeedMPH,Gust SpeedMPH,PrecipitationIn,Events,Conditions,WindDirDegrees,DateUTC
12:53 AM,44.1,36.0,73,30.16,10.0,SSE,3.5,-,0.00,Rain,Light Rain,160,2013-12-01 08:53:00
1:53 AM,43.0,37.9,82,30.14,10.0,SSE,6.9,-,0.01,Rain,Light Rain,160,2013-12-01 09:53:00
2:53 AM,44.1,39.9,85,30.12,6.0,SSW,6.9,-,0.03,Rain,Light Rain,210,2013-12-01 10:53:00
3:53 AM,44.1,41.0,89,30.07,9.0,South,6.9,-,0.05,Rain,Light Rain,170,2013-12-01 11:53:00
4:53 AM,46.0,42.1,86,30.01,9.0,South,9.2,-,0.05,Rain,Light Rain,180,2013-12-01 12:53:00
5:53 AM,48.9,42.1,77,29.96,10.0,SSW,13.8,23.0,0.01,,Overcast,200,2013-12-01 13:53:00
6:53 AM,48.0,43.0,83,29.95,10.0,South,10.4,-,N/A,,Overcast,180,2013-12-01 14:53:00
7:53 AM,54.0,43.0,66,29.95,10.0,WSW,15.0,31.1,N/A,,Overcast,250,2013-12-01 15:53:00
8:53 AM,52.0,41.0,66,29.96,10.0,West,12.7,20.7,N/A,,Overcast,270,2013-12-01 16:53:00
9:53 AM,55.9,43.0,62,29.94,10.0,West,19.6,31.1,N/A,,Overcast,260,2013-12-01 17:53:00
10:53 AM,57.9,43.0,58,29.93,10.0,WSW,24.2,33.4,N/A,,Overcast,250,2013-12-01 18:53:00
11:53 AM,60.1,44.1,55,29.90,10.0,West,26.5,38.0,N/A,,Overcast,260,2013-12-01 19:53:00
12:53 PM,60.1,44.1,55,29.88,10.0,West,24.2,33.4,N/A,,Scattered Clouds,260,2013-12-01 20:53:00
1:53 PM,59.0,44.1,58,29.88,10.0,West,20.7,28.8,N/A,,Partly Cloudy,280,2013-12-01 21:53:00
2:53 PM,57.9,43.0,58,29.88,10.0,West,17.3,27.6,N/A,,Mostly Cloudy,270,2013-12-01 22:53:00
3:53 PM,55.0,44.1,67,29.88,10.0,NW,9.2,-,N/A,,Mostly Cloudy,310,2013-12-01 23:53:00
4:53 PM,53.1,44.1,71,29.87,10.0,NW,6.9,-,N/A,,Mostly Cloudy,310,2013-12-02 00:53:00
5:53 PM,55.0,43.0,64,29.84,10.0,SW,11.5,-,N/A,,Overcast,230,2013-12-02 01:53:00
6:53 PM,55.0,42.1,62,29.83,10.0,West,11.5,-,N/A,,Overcast,270,2013-12-02 02:53:00
7:53 PM,51.1,44.1,77,29.83,10.0,West,11.5,-,0.00,Rain,Light Rain,270,2013-12-02 03:53:00
8:53 PM,50.0,46.0,86,29.82,10.0,SW,10.4,-,0.01,Rain,Light Rain,220,2013-12-02 04:53:00
9:53 PM,50.0,46.0,86,29.80,10.0,SSW,10.4,-,0.00,,Overcast,200,2013-12-02 05:53:00
10:53 PM,50.0,45.0,83,29.78,10.0,SSW,10.4,-,N/A,,Overcast,210,2013-12-02 06:53:00
11:53 PM,53.1,43.0,69,29.74,10.0,WSW,18.4,24.2,N/A,,Overcast,240,2013-12-02 07:53:00